| time (UTC) | temp F | wind direction | speed MPH | gust MPH | rain 1hr in | rain 24hr in | rain mn in | humidity % | barometer mb |
| 20260504081538 | 0 | 0.0 | 0.0 | 0.00 | 0.84 | 0.00 | 1012.4 | ||
| 20260504044532 | 0 | 0.0 | 0.0 | 0.00 | 0.84 | 0.84 | 1014.1 | ||
| 20260504043037 | 0 | 0.0 | 0.0 | 0.00 | 0.84 | 0.84 | 1014.1 | ||
| 20260504041522 | 0 | 0.0 | 0.0 | 0.00 | 0.84 | 0.84 | 1014.2 | ||
| 20260504040018 | 0 | 0.0 | 0.0 | 0.00 | 0.84 | 0.84 | 1014.1 | ||
| 20260504034512 | 0 | 0.0 | 0.0 | 0.00 | 0.84 | 0.84 | 1014.1 | ||
| 20260504033012 | 0 | 0.0 | 0.0 | 0.00 | 0.84 | 0.84 | 1014.1 | ||
| 20260504031503 | 0 | 0.0 | 0.0 | 0.00 | 0.84 | 0.84 | 1014.1 | ||
| 20260504030057 | 0 | 0.0 | 0.0 | 0.00 | 0.84 | 0.84 | 1013.8 | ||
| 20260504024552 | 0 | 0.0 | 0.0 | 0.00 | 0.84 | 0.84 | 1013.5 | ||
| 20260504023048 | 0 | 0.0 | 0.0 | 0.00 | 0.84 | 0.84 | 1013.4 | ||
| 20260504021547 | 0 | 0.0 | 0.0 | 0.00 | 0.84 | 0.84 | 1013.2 | ||
| 20260504020036 | 0 | 0.0 | 0.0 | 0.00 | 0.84 | 0.84 | 1013.2 | ||
| 20260504014538 | 0 | 0.0 | 0.0 | 0.00 | 0.84 | 0.84 | 1013.0 | ||
| 20260504013027 | 0 | 0.0 | 0.0 | 0.00 | 0.84 | 0.84 | 1012.7 | ||
| 20260504011526 | 0 | 0.0 | 0.0 | 0.00 | 0.84 | 0.84 | 1012.7 | ||
| 20260504010101 | 0 | 0.0 | 0.0 | 0.00 | 0.84 | 0.84 | 1012.6 | ||
| 20260504004559 | 0 | 0.0 | 0.0 | 0.00 | 0.84 | 0.84 | 1012.6 | ||
| 20260504003013 | 0 | 0.0 | 0.0 | 0.00 | 0.84 | 0.84 | 1012.5 | ||
| 20260504001513 | 81 | 301 | 0.0 | 1.0 | 0.00 | 0.84 | 0.84 | 90 | 1012.4 |
| 20260504000044 | 82 | 283 | 0.0 | 1.0 | 0.00 | 0.84 | 0.84 | 89 | 1012.1 |
| 20260503234542 | 82 | 285 | 0.0 | 1.0 | 0.00 | 0.84 | 0.84 | 88 | 1011.7 |
| 20260503233045 | 83 | 317 | 0.0 | 4.0 | 0.00 | 0.84 | 0.84 | 87 | 1011.8 |
| 20260503231539 | 83 | 291 | 0.0 | 1.0 | 0.00 | 0.84 | 0.84 | 87 | 1011.7 |
| 20260503230038 | 83 | 356 | 0.0 | 0.0 | 0.00 | 0.00 | 0.84 | 87 | 1011.3 |
| 20260503224537 | 84 | 301 | 0.0 | 3.0 | 0.00 | 0.84 | 0.84 | 85 | 1011.5 |
| 20260503223036 | 85 | 156 | 0.0 | 5.0 | 0.00 | 0.84 | 0.84 | 85 | 1011.4 |
| 20260503221536 | 84 | 18 | 0.0 | 2.0 | 0.00 | 0.84 | 0.84 | 89 | 1011.7 |
| 20260503220034 | 83 | 267 | 0.0 | 4.0 | 0.00 | 0.84 | 0.84 | 91 | 1011.9 |
| 20260503214532 | 82 | 53 | 0.0 | 1.0 | 0.00 | 0.84 | 0.84 | 94 | 1012.1 |
| 20260503213030 | 79 | 173 | 0.0 | 1.0 | 0.01 | 0.84 | 0.84 | 94 | 1012.2 |
| 20260503211530 | 78 | 134 | 0.0 | 1.0 | 0.02 | 0.84 | 0.84 | 93 | 1012.3 |
| 20260503210027 | 77 | 15 | 0.0 | 2.0 | 0.04 | 0.84 | 0.84 | 93 | 1012.8 |
| 20260503204526 | 76 | 116 | 2.0 | 4.0 | 0.21 | 0.84 | 0.84 | 92 | 1012.5 |
| 20260503203023 | 77 | 312 | 1.0 | 4.0 | 0.32 | 0.83 | 0.83 | 91 | 1012.8 |
| 20260503201518 | 81 | 98 | 1.0 | 4.0 | 0.31 | 0.82 | 0.82 | 88 | 1012.8 |
| 20260503200017 | 82 | 297 | 0.0 | 2.0 | 0.28 | 0.80 | 0.80 | 89 | 1012.7 |
| 20260503194516 | 85 | 87 | 0.0 | 2.0 | 0.09 | 0.60 | 0.60 | 83 | 1013.4 |
| 20260503193014 | 86 | 318 | 1.0 | 4.0 | 0.00 | 0.51 | 0.51 | 77 | 1013.0 |
| 20260503191527 | 88 | 131 | 0.0 | 6.0 | 0.00 | 0.51 | 0.51 | 74 | 1012.7 |
| 20260503190012 | 89 | 134 | 1.0 | 6.0 | 0.00 | 0.51 | 0.51 | 74 | 1012.7 |
| 20260503184509 | 88 | 163 | 0.0 | 6.0 | 0.00 | 0.51 | 0.51 | 77 | 1012.8 |
| 20260503183002 | 87 | 41 | 1.0 | 8.0 | 0.00 | 0.51 | 0.51 | 79 | 1013.0 |
| 20260503181505 | 87 | 305 | 1.0 | 4.0 | 0.02 | 0.51 | 0.51 | 80 | 1013.1 |
| 20260503180122 | 86 | 160 | 1.0 | 6.0 | 0.45 | 0.51 | 0.51 | 82 | 1013.5 |
| 20260503174557 | 84 | 307 | 1.0 | 3.0 | 0.51 | 0.51 | 0.51 | 86 | 1013.4 |
| 20260503173026 | 82 | 6 | 0.0 | 1.0 | 0.51 | 0.51 | 0.51 | 89 | 1013.7 |
| 20260503171526 | 80 | 301 | 1.0 | 15.0 | 0.50 | 0.50 | 0.50 | 75 | 1014.0 |